TimeCDT,TemperatureF,Dew PointF,Humidity,Sea Level PressureIn,VisibilityMPH,Wind Direction,Wind SpeedMPH,Gust SpeedMPH,PrecipitationIn,Events,Conditions,WindDirDegrees,DateUTC
12:15 AM,58.1,54.9,89,30.01,10.0,Calm,Calm,-,N/A,,Clear,0,2013-07-24 05:15:00
12:35 AM,58.1,54.9,89,30.01,10.0,Calm,Calm,-,N/A,,Clear,0,2013-07-24 05:35:00
12:55 AM,57.4,54.3,90,30.01,10.0,Calm,Calm,-,N/A,,Clear,0,2013-07-24 05:55:00
1:15 AM,57.0,53.8,89,30.01,10.0,NE,4.6,-,N/A,,Clear,50,2013-07-24 06:15:00
1:35 AM,56.3,53.4,90,30.00,10.0,NE,5.8,-,N/A,,Clear,50,2013-07-24 06:35:00
1:55 AM,55.8,52.9,90,30.00,10.0,NNE,4.6,-,N/A,,Clear,30,2013-07-24 06:55:00
2:15 AM,55.6,52.7,90,30.00,10.0,NNE,4.6,-,N/A,,Clear,20,2013-07-24 07:15:00
2:35 AM,55.9,53.1,90,30.01,10.0,North,4.6,-,N/A,,Clear,10,2013-07-24 07:35:00
2:55 AM,55.4,52.7,91,30.01,10.0,North,4.6,-,N/A,,Clear,360,2013-07-24 07:55:00
3:15 AM,55.8,52.9,90,30.02,10.0,North,5.8,-,N/A,,Clear,360,2013-07-24 08:15:00
3:35 AM,55.6,52.7,90,30.01,10.0,North,5.8,-,N/A,,Clear,10,2013-07-24 08:35:00
3:55 AM,55.8,52.9,90,30.01,10.0,NNE,5.8,-,N/A,,Clear,20,2013-07-24 08:55:00
4:15 AM,55.4,52.7,91,30.01,10.0,North,4.6,-,N/A,,Clear,10,2013-07-24 09:15:00
4:35 AM,54.7,52.0,91,30.02,10.0,North,5.8,-,N/A,,Clear,350,2013-07-24 09:35:00
4:55 AM,55.4,52.7,91,30.03,10.0,North,4.6,-,N/A,,Clear,350,2013-07-24 09:55:00
5:15 AM,54.1,51.4,91,30.03,10.0,North,4.6,-,N/A,,Clear,350,2013-07-24 10:15:00
5:35 AM,54.1,51.4,91,30.04,10.0,North,4.6,-,N/A,,Clear,350,2013-07-24 10:35:00
5:55 AM,54.1,51.4,91,30.04,10.0,Calm,Calm,-,N/A,,Clear,0,2013-07-24 10:55:00
6:15 AM,54.1,51.4,91,30.04,10.0,NNW,3.5,-,N/A,,Clear,340,2013-07-24 11:15:00
6:35 AM,55.0,52.2,90,30.04,10.0,North,3.5,-,N/A,,Clear,350,2013-07-24 11:35:00
6:55 AM,56.5,53.8,91,30.05,10.0,NNW,3.5,-,N/A,,Clear,330,2013-07-24 11:55:00
7:15 AM,58.1,54.7,88,30.06,10.0,NNW,4.6,-,N/A,,Clear,330,2013-07-24 12:15:00
7:35 AM,59.0,55.8,89,30.07,10.0,North,3.5,-,N/A,,Clear,350,2013-07-24 12:35:00
7:55 AM,60.4,56.5,87,30.07,10.0,North,4.6,-,N/A,,Clear,350,2013-07-24 12:55:00
8:15 AM,62.2,57.2,84,30.07,10.0,NNE,6.9,-,N/A,,Clear,20,2013-07-24 13:15:00
8:35 AM,63.5,56.1,77,30.07,10.0,NNE,9.2,-,N/A,,Clear,30,2013-07-24 13:35:00
8:55 AM,64.6,56.1,74,30.07,10.0,NE,9.2,-,N/A,,Clear,40,2013-07-24 13:55:00
9:15 AM,65.5,55.8,71,30.07,10.0,NE,10.4,-,N/A,,Clear,40,2013-07-24 14:15:00
9:35 AM,65.7,55.0,69,30.07,10.0,NNE,8.1,-,N/A,,Clear,30,2013-07-24 14:35:00
9:55 AM,66.6,54.3,65,30.07,10.0,NE,11.5,-,N/A,,Clear,50,2013-07-24 14:55:00
10:15 AM,69.1,54.5,60,30.07,10.0,NNE,10.4,-,N/A,,Clear,30,2013-07-24 15:15:00
10:35 AM,69.1,53.8,58,30.07,10.0,NNE,6.9,-,N/A,,Clear,30,2013-07-24 15:35:00
10:55 AM,68.9,52.7,56,30.07,10.0,NNE,6.9,11.5,N/A,,Clear,20,2013-07-24 15:55:00
11:15 AM,69.8,54.0,57,30.07,10.0,ENE,9.2,-,N/A,,Scattered Clouds,70,2013-07-24 16:15:00
11:35 AM,70.2,53.6,56,30.08,10.0,NNE,9.2,16.1,N/A,,Clear,20,2013-07-24 16:35:00
11:55 AM,71.1,51.4,50,30.08,10.0,NNE,8.1,-,N/A,,Clear,30,2013-07-24 16:55:00
12:15 PM,72.3,52.5,50,30.08,10.0,ENE,6.9,-,N/A,,Scattered Clouds,60,2013-07-24 17:15:00
12:35 PM,72.5,52.0,48,30.07,10.0,NE,3.5,16.1,N/A,,Scattered Clouds,40,2013-07-24 17:35:00
12:55 PM,72.5,52.3,49,30.07,10.0,Calm,Calm,-,N/A,,Clear,0,2013-07-24 17:55:00
1:15 PM,73.4,53.6,50,30.07,10.0,NNE,4.6,-,N/A,,Clear,20,2013-07-24 18:15:00
1:35 PM,74.1,53.6,49,30.07,10.0,ENE,8.1,-,N/A,,Clear,70,2013-07-24 18:35:00
1:55 PM,72.1,52.3,50,30.07,10.0,ENE,6.9,-,N/A,,Scattered Clouds,60,2013-07-24 18:55:00
2:15 PM,72.3,52.9,50,30.07,10.0,NNE,4.6,-,N/A,,Scattered Clouds,30,2013-07-24 19:15:00
2:35 PM,73.8,52.7,48,30.06,10.0,Calm,Calm,-,N/A,,Scattered Clouds,0,2013-07-24 19:35:00
2:55 PM,74.1,52.3,46,30.06,10.0,ENE,8.1,-,N/A,,Scattered Clouds,70,2013-07-24 19:55:00
3:15 PM,73.4,52.0,47,30.06,10.0,NE,10.4,-,N/A,,Scattered Clouds,50,2013-07-24 20:15:00
3:35 PM,73.0,53.4,50,30.05,10.0,NNE,6.9,-,N/A,,Clear,30,2013-07-24 20:35:00
3:55 PM,73.8,52.0,46,30.05,10.0,North,5.8,-,N/A,,Scattered Clouds,10,2013-07-24 20:55:00
4:15 PM,72.7,52.2,48,30.04,10.0,NE,3.5,-,N/A,,Scattered Clouds,50,2013-07-24 21:15:00
4:35 PM,72.0,52.2,50,30.04,10.0,Calm,Calm,-,N/A,,Clear,0,2013-07-24 21:35:00
4:55 PM,73.0,53.1,49,30.04,10.0,NE,3.5,-,N/A,,Scattered Clouds,40,2013-07-24 21:55:00
5:15 PM,72.5,53.1,50,30.04,10.0,NNE,4.6,-,N/A,,Scattered Clouds,30,2013-07-24 22:15:00
5:35 PM,73.2,52.7,48,30.04,10.0,NE,4.6,-,N/A,,Scattered Clouds,50,2013-07-24 22:35:00
5:55 PM,70.7,53.6,55,30.05,10.0,NE,5.8,-,N/A,,Scattered Clouds,50,2013-07-24 22:55:00
6:15 PM,71.4,53.6,53,30.05,10.0,NE,4.6,-,N/A,,Mostly Cloudy,50,2013-07-24 23:15:00
6:35 PM,73.0,53.4,50,30.05,10.0,NE,4.6,-,N/A,,Mostly Cloudy,50,2013-07-24 23:35:00
6:55 PM,72.1,52.9,51,30.05,10.0,North,4.6,-,N/A,,Mostly Cloudy,360,2013-07-24 23:55:00
7:15 PM,71.2,53.6,54,30.06,10.0,NNE,3.5,-,N/A,,Scattered Clouds,20,2013-07-25 00:15:00
7:35 PM,69.6,54.3,58,30.06,10.0,NNE,5.8,-,N/A,,Scattered Clouds,30,2013-07-25 00:35:00
7:55 PM,68.0,54.9,63,30.06,10.0,NNE,3.5,-,N/A,,Clear,20,2013-07-25 00:55:00
8:15 PM,66.4,55.6,68,30.06,10.0,ENE,5.8,-,N/A,,Clear,60,2013-07-25 01:15:00
8:35 PM,64.0,56.5,76,30.06,10.0,East,3.5,-,N/A,,Clear,80,2013-07-25 01:35:00
8:55 PM,62.8,56.3,79,30.06,10.0,East,5.8,-,N/A,,Clear,80,2013-07-25 01:55:00
9:15 PM,62.1,56.3,81,30.06,10.0,ESE,3.5,-,N/A,,Clear,110,2013-07-25 02:15:00
9:35 PM,61.3,56.3,83,30.06,10.0,ESE,5.8,-,N/A,,Clear,110,2013-07-25 02:35:00
9:55 PM,61.0,55.9,83,30.06,10.0,East,6.9,-,N/A,,Clear,100,2013-07-25 02:55:00
10:15 PM,60.1,55.4,85,30.07,10.0,East,5.8,-,N/A,,Clear,100,2013-07-25 03:15:00
10:35 PM,59.2,54.7,85,30.07,10.0,East,4.6,-,N/A,,Clear,90,2013-07-25 03:35:00
10:55 PM,59.2,54.7,85,30.07,10.0,Calm,Calm,-,N/A,,Clear,0,2013-07-25 03:55:00
11:15 PM,60.4,55.4,83,30.08,10.0,Calm,Calm,-,N/A,,Clear,0,2013-07-25 04:15:00
11:35 PM,60.1,55.4,85,30.08,10.0,Calm,Calm,-,N/A,,Clear,0,2013-07-25 04:35:00
11:55 PM,58.1,54.0,86,30.08,10.0,Calm,Calm,-,N/A,,Clear,0,2013-07-25 04:55:00